KD9JJA Weather Reports


time (UTC)temp
F
wind
direction
speed
knots
gust
knots
rain 1hr
in
rain 24hr
in
rain mn
in
humidity
%
barometer
mb
20260504000804 61 223 3.5 3.5 0.00 0.00 0.00 56 1013.3
20260504000301 61 243 3.5 5.2 0.00 0.00 0.00 56 1013.5
20260503235759 61 151 0.9 0.9 0.00 0.00 0.00 59 1013.0
20260503235256 62 212 3.5 3.5 0.00 0.00 0.00 55 1013.2
20260503234753 62 207 0.9 0.9 0.00 0.00 0.00 55 1013.4
20260503234245 62 210 0.0 0.0 0.00 0.00 0.00 55 1013.8
20260503233742 62 229 1.7 1.7 0.00 0.00 0.00 54 1014.0
20260503233238 62 239 2.6 2.6 0.00 0.00 0.00 54 1014.4
20260503232735 62 247 3.5 3.5 0.00 0.00 0.00 58 1014.4
20260503232232 62 237 2.6 2.6 0.00 0.00 0.00 53 1014.4
20260503231730 62 225 4.3 5.2 0.00 0.00 0.00 59 1014.1
20260503231227 62 216 0.9 1.7 0.00 0.00 0.00 54 1013.8
20260503230722 62 209 0.0 0.9 0.00 0.00 0.00 53 1014.0
20260503230220 62 169 0.0 0.9 0.00 0.00 0.00 54 1013.8
20260503225712 62 199 0.0 0.0 0.00 0.00 0.00 52 1014.0
20260503225212 62 213 1.7 2.6 0.00 0.00 0.00 58 1013.7
20260503224709 62 229 1.7 2.6 0.00 0.00 0.00 54 1014.1
20260503224207 62 225 3.5 5.2 0.00 0.00 0.00 53 1014.4
20260503223704 62 246 3.5 3.5 0.00 0.00 0.00 54 1014.4
20260503223202 62 245 4.3 5.2 0.00 0.00 0.00 51 1014.2
20260503222658 62 237 3.5 5.2 0.00 0.00 0.00 52 1014.1
20260503222156 62 231 7.0 8.7 0.00 0.00 0.00 52 1014.2
20260503221654 62 230 4.3 6.1 0.00 0.00 0.00 52 1014.1
20260503221151 62 278 2.6 6.1 0.00 0.00 0.00 51 1014.0
20260503220648 62 233 1.7 1.7 0.00 0.00 0.00 54 1014.2
20260503220144 62 235 1.7 2.6 0.00 0.00 0.00 52 1014.4
20260503215642 62 210 0.0 0.0 0.00 0.00 0.00 49 1014.7
20260503215138 62 251 4.3 5.2 0.00 0.00 0.00 52 1014.6
20260503214637 62 237 7.0 7.8 0.00 0.00 0.00 51 1014.5
20260503214132 62 234 4.3 6.1 0.00 0.00 0.00 54 1014.5
20260503213626 62 238 3.5 3.5 0.00 0.00 0.00 55 1014.5
20260503213122 61 244 6.1 7.0 0.00 0.00 0.00 53 1014.8
20260503212620 61 232 1.7 1.7 0.00 0.00 0.00 51 1014.5
20260503212117 62 240 5.2 6.1 0.00 0.00 0.00 54 1014.4
20260503211615 62 233 3.5 5.2 0.00 0.00 0.00 51 1014.8
20260503211110 62 228 6.1 7.0 0.00 0.00 0.00 52 1015.3
20260503210607 62 225 3.5 5.2 0.00 0.00 0.00 53 1015.1
20260503210103 62 230 7.0 8.7 0.00 0.00 0.00 49 1015.1
20260503205559 62 213 2.6 3.5 0.00 0.00 0.00 51 1015.3
20260503205055 62 234 7.0 7.8 0.00 0.00 0.00 52 1015.5
20260503204553 62 232 7.8 8.7 0.00 0.00 0.00 50 1015.9
20260503204050 62 240 7.0 8.7 0.00 0.00 0.00 50 1015.9
20260503203547 62 251 10.4 12.2 0.00 0.00 0.00 56 1016.0
20260503203044 62 249 9.6 11.3 0.00 0.00 0.00 52 1016.5
20260503202541 62 244 8.7 9.6 0.00 0.00 0.00 52 1016.6
20260503202034 62 275 7.8 8.7 0.00 0.00 0.00 51 1016.3
20260503201532 62 239 5.2 6.1 0.00 0.00 0.00 53 1016.6
20260503201029 62 240 10.4 13.9 0.00 0.00 0.00 49 1016.2
20260503200525 62 229 8.7 9.6 0.00 0.00 0.00 51 1016.2
20260503200022 63 262 7.8 8.7 0.00 0.00 0.00 53 1016.2
20260503195518 62 236 7.8 7.8 0.00 0.00 0.00 55 1016.5
20260503195009 62 237 4.3 5.2 0.00 0.00 0.00 53 1016.6
20260503194506 62 225 4.3 5.2 0.00 0.00 0.00 50 1016.5
20260503192917 62 243 9.6 13.9 0.00 0.00 0.00 50 1016.7
20260503192414 62 243 9.6 13.9 0.00 0.00 0.00 50 1016.7
20260503191910 62 245 7.0 12.2 0.00 0.00 0.00 48 1017.1
20260503191408 62 243 4.3 6.1 0.00 0.00 0.00 49 1017.0
20260503190903 62 234 1.7 6.1 0.00 0.00 0.00 48 1016.9
20260503190401 62 235 3.5 5.2 0.00 0.00 0.00 51 1017.0
20260503185857 61 229 5.2 6.1 0.00 0.00 0.00 50 1017.1
20260503185354 62 249 3.5 5.2 0.00 0.00 0.00 50 1017.4
20260503184854 61 234 7.0 8.7 0.00 0.00 0.00 54 1017.5
20260503184350 61 237 7.8 8.7 0.00 0.00 0.00 49 1017.5
20260503183846 61 236 7.0 11.3 0.00 0.00 0.00 49 1017.1
20260503183343 60 268 3.5 5.2 0.00 0.00 0.00 49 1017.8
20260503182840 61 225 16.5 20.0 0.00 0.00 0.00 47 1018.1
20260503182340 61 221 4.3 5.2 0.00 0.00 0.00 52 1017.9
20260503181836 60 239 8.7 9.6 0.00 0.00 0.00 48 1018.1
20260503181333 60 250 7.0 7.8 0.00 0.00 0.00 53 1018.1
20260503180830 61 244 3.5 3.5 0.00 0.00 0.00 53 1018.2
20260503180328 60 263 6.1 8.7 0.00 0.00 0.00 53 1018.6
20260503175824 60 251 4.3 5.2 0.00 0.00 0.00 49 1018.6
20260503175322 61 234 3.5 3.5 0.00 0.00 0.00 48 1018.8
20260503174817 60 207 0.0 0.9 0.00 0.00 0.00 52 1018.7
20260503174316 60 233 9.6 12.2 0.00 0.00 0.00 55 1019.0
20260503173812 60 232 1.7 2.6 0.00 0.00 0.00 48 1018.9
20260503173308 60 236 5.2 7.0 0.00 0.00 0.00 54 1019.3
20260503172804 59 150 0.9 1.7 0.00 0.00 0.00 49 1019.2
20260503172305 59 228 7.0 7.8 0.00 0.00 0.00 54 1019.2
20260503171758 59 250 5.2 6.1 0.00 0.00 0.00 53 1019.2
20260503171255 59 249 8.7 9.6 0.00 0.00 0.00 56 1019.3
20260503170753 59 251 10.4 12.2 0.00 0.00 0.00 53 1019.1
20260503170249 60 198 0.9 0.9 0.00 0.00 0.00 50 1019.2
20260503160211 57 180 2.6 3.5 0.00 0.00 0.00 51 1020.3
20260503150642 55 242 6.1 7.0 0.00 0.00 0.00 56 1020.9
20260503150137 55 235 7.8 9.6 0.00 0.00 0.00 56 1020.7
20260503131031 47 238 3.5 5.2 0.00 0.00 0.00 67 1021.3
20260503130528 47 234 1.7 1.7 0.00 0.00 0.00 69 1021.5
20260503110419 38 188 0.0 0.0 0.00 0.00 0.00 98 1020.7
20260503090303 38 184 0.0 0.0 0.00 0.00 0.00 99 1020.4
20260503081237 38 191 0.0 0.0 0.00 0.00 0.00 99 1020.5
20260503080732 38 191 0.0 0.0 0.00 0.00 0.00 99 1020.5
20260503080230 38 161 0.0 0.0 0.00 0.00 0.00 99 1020.6
20260503072706 38 191 0.0 0.0 0.00 0.00 0.00 99 1020.3
20260503072203 38 204 0.0 0.0 0.00 0.00 0.00 99 1020.3
20260503071700 38 134 0.0 0.0 0.00 0.00 0.00 99 1020.1
20260503071156 38 171 0.0 0.0 0.00 0.00 0.00 99 1020.5
20260503070653 38 173 0.0 0.0 0.00 0.00 0.00 99 1020.6
20260503070152 38 172 0.0 0.0 0.00 0.00 0.00 99 1020.6
20260503060110 38 149 0.0 0.0 0.00 0.00 0.00 98 1020.9
20260503055102 38 180 0.0 0.0 0.00 0.00 0.00 98 1021.0
20260503054557 38 135 0.0 0.0 0.00 0.00 0.00 98 1021.0
20260503054055 39 191 0.0 0.0 0.00 0.00 0.00 98 1020.9
20260503053553 39 184 0.0 0.0 0.00 0.00 0.00 98 1021.1
20260503053050 39 183 0.0 0.0 0.00 0.00 0.00 98 1021.0
20260503052547 39 182 0.0 0.0 0.00 0.00 0.00 98 1021.1
20260503052043 39 147 0.0 0.0 0.00 0.00 0.00 98 1021.0
20260503051539 39 182 0.0 0.0 0.00 0.00 0.00 97 1021.1
20260503051037 40 179 0.0 0.0 0.00 0.00 0.00 98 1021.1
20260503050532 40 183 0.0 0.0 0.00 0.00 0.00 97 1021.5
20260503050030 40 160 0.0 0.0 0.00 0.00 0.00 98 1021.3
20260503045527 40 190 0.0 0.0 0.00 0.00 0.00 97 1021.0
20260503045024 39 188 0.0 0.0 0.00 0.00 0.00 97 1021.1
20260503044521 39 185 0.0 0.0 0.00 0.00 0.00 96 1021.1
20260503044019 39 189 0.0 0.0 0.00 0.00 0.00 96 1021.3
20260503043514 40 193 0.0 0.0 0.00 0.00 0.00 96 1021.1
20260503043011 40 192 0.0 0.0 0.00 0.00 0.00 96 1020.9
20260503042508 40 200 0.0 0.0 0.00 0.00 0.00 96 1020.9
20260503042004 40 197 0.0 0.0 0.00 0.00 0.00 95 1020.9
20260503041502 40 170 0.0 0.0 0.00 0.00 0.00 95 1020.9
20260503040959 41 186 0.0 0.0 0.00 0.00 0.00 95 1020.8
20260503040456 40 195 0.0 0.0 0.00 0.00 0.00 94 1020.9
20260503035953 41 187 0.0 0.0 0.00 0.00 0.00 94 1020.8
20260503035449 41 190 0.0 0.0 0.00 0.00 0.00 93 1020.9
20260503034948 41 188 0.0 0.0 0.00 0.00 0.00 93 1020.9
20260503034444 41 194 0.0 0.0 0.00 0.00 0.00 92 1020.9
20260503033941 41 159 0.0 0.0 0.00 0.00 0.00 92 1021.0
20260503033439 41 186 0.0 0.0 0.00 0.00 0.00 92 1021.0
20260503032936 42 166 0.0 0.0 0.00 0.00 0.00 91 1021.0
20260503032435 42 188 0.0 0.0 0.00 0.00 0.00 91 1020.9
20260503031932 42 176 0.0 0.0 0.00 0.00 0.00 90 1020.9
20260503031430 42 192 0.0 0.0 0.00 0.00 0.00 90 1021.0
20260503030926 42 186 0.0 0.0 0.00 0.00 0.00 90 1020.8
20260503030423 42 192 0.0 0.0 0.00 0.00 0.00 89 1021.0
20260503025920 42 184 0.0 0.0 0.00 0.00 0.00 88 1021.1
20260503025417 42 187 0.0 0.0 0.00 0.00 0.00 87 1021.1
20260503024914 43 167 0.0 0.0 0.00 0.00 0.00 87 1021.0
20260503024410 43 194 0.0 0.0 0.00 0.00 0.00 86 1020.9
20260503023908 43 160 0.0 0.0 0.00 0.00 0.00 85 1020.9
20260503023404 43 166 0.0 0.0 0.00 0.00 0.00 84 1020.7
20260503022901 44 169 0.0 0.0 0.00 0.00 0.00 83 1020.8
20260503022355 44 191 0.0 0.0 0.00 0.00 0.00 82 1020.8
20260503021852 44 186 0.0 0.0 0.00 0.00 0.00 81 1020.8
20260503021348 44 193 0.0 0.0 0.00 0.00 0.00 81 1020.6
20260503020846 44 190 0.0 0.0 0.00 0.00 0.00 82 1020.7
20260503020344 45 189 0.0 0.0 0.00 0.00 0.00 80 1020.7
20260503015840 45 192 0.0 0.0 0.00 0.00 0.00 79 1020.5
20260503015337 45 196 0.0 0.0 0.00 0.00 0.00 79 1020.6
20260503014832 45 192 0.0 0.0 0.00 0.00 0.00 78 1020.3
20260503014330 46 187 0.0 0.0 0.00 0.00 0.00 76 1020.3
20260503013827 46 190 0.0 0.0 0.00 0.00 0.00 74 1020.3
20260503013325 47 180 0.0 0.0 0.00 0.00 0.00 71 1020.3
20260503012822 47 192 0.0 0.0 0.00 0.00 0.00 66 1020.5
20260503012319 47 189 0.0 0.0 0.00 0.00 0.00 55 1020.2
20260503011816 48 185 0.0 0.0 0.00 0.00 0.00 57 1020.2
20260503011313 48 193 0.0 0.0 0.00 0.00 0.00 54 1020.0
20260503010809 48 192 0.0 0.0 0.00 0.00 0.00 54 1020.0
20260503010307 48 194 0.0 0.0 0.00 0.00 0.00 55 1020.1
20260503005803 49 191 0.0 0.0 0.00 0.00 0.00 53 1020.0
20260503005301 49 192 0.0 0.0 0.00 0.00 0.00 53 1020.0
20260503004756 49 197 0.0 0.0 0.00 0.00 0.00 51 1020.0
20260503004255 50 190 0.0 0.0 0.00 0.00 0.00 51 1019.9
20260503003752 50 192 0.0 0.0 0.00 0.00 0.00 52 1019.8
20260503003249 50 185 0.0 0.0 0.00 0.00 0.00 53 1019.9
20260503002745 50 189 0.0 0.0 0.00 0.00 0.00 52 1019.8
20260503002242 51 187 0.0 0.0 0.00 0.00 0.00 51 1019.8
20260503001738 51 185 0.0 0.0 0.00 0.00 0.00 51 1019.8
20260503001235 51 176 0.0 0.0 0.00 0.00 0.00 49 1019.8